Weather History for Athens, GA

Change the Weather History Date:

Friday, December 13, 2013

  Actual Average Record
Temperature  
Mean Temperature 40 °F 46 °F  
Max Temperature 56 °F 56 °F 76 °F (1956)
Min Temperature 23 °F 35 °F 2 °F (1962)
Degree Days  
Heating Degree Days 25 19  
Month to date heating degree days 195 233  
Since 1 July heating degree days 757 713  
Moisture  
Dew Point 24 °F    
Average Humidity 53    
Maximum Humidity 81    
Minimum Humidity 24    
Precipitation  
Precipitation 0.00 in 0.12 in 1.78 in (1935)
Month to date precipitation 1.90 1.62  
Year to date precipitation 54.17 44.22  
Snow  
Snow 0.00 in 0.00 in 0.00 in (2001)
Month to date snowfall 0.0 0.0  
Since 1 July snowfall 0.0 0.0  
Snow Depth 0.00 in    
Sea Level Pressure  
Sea Level Pressure 30.31 in    
Wind  
Wind Speed 2 mph (SE)    
Max Wind Speed 9 mph    
Max Gust Speed 10 mph    
Visibility 10 miles    
Events      
T = Trace of Precipitation, MM = Missing Value Source: NWS Daily Summary

Daily Weather History Graph

Daily Weather History Graph

Search for Another Location

Airport:

Trip Planner

Search our weather history database for the weather conditions in past years. The results will help you decide how hot, cold, wet, or windy it might be!

Date:

Astronomy

Dec. 13, 2013 Rise Set
Actual Time 7:30 AM EST 5:25 PM EST
Civil Twilight 7:02 AM EST 5:52 PM EST
Nautical Twilight 6:31 AM EST 6:24 PM EST
Astronomical Twilight 6:00 AM EST 6:54 PM EST
Moon 3:01 PM EST (12/13) 3:58 AM EST (12/13)
Length of Visible Light 10h 50m
Length of Day
9h 55m
Waxing Gibbous, 88% of the Moon is Illuminated
Dec 13
Waxing Gibbous
Dec 17
Full
Dec 25
Last Quarter
Jan 1
New
Jan 7
First Quarter

Hourly Weather History & Observations

Time (EST) Temp. Windchill Dew Point Humidity Pressure Visibility Wind Dir Wind Speed Gust Speed Precip Events Conditions
12:51 AM 30.9 °F - 21.0 °F 67% 30.38 in 10.0 mi Calm Calm - N/A   Clear
1:51 AM 30.9 °F - 19.9 °F 64% 30.37 in 10.0 mi Calm Calm - N/A   Clear
2:51 AM 30.0 °F - 19.0 °F 64% 30.36 in 10.0 mi Calm Calm - N/A   Clear
3:51 AM 30.0 °F - 18.0 °F 61% 30.36 in 10.0 mi Calm Calm - N/A   Clear
4:51 AM 26.1 °F - 19.9 °F 78% 30.36 in 9.0 mi Calm Calm - N/A   Clear
5:51 AM 25.0 °F - 19.9 °F 81% 30.36 in 9.0 mi Calm Calm - N/A   Clear
6:51 AM 24.1 °F - 19.9 °F 84% 30.35 in 9.0 mi Calm Calm - N/A   Clear
7:51 AM 25.0 °F - 19.9 °F 81% 30.35 in 8.0 mi Calm Calm - N/A   Clear
8:51 AM 30.9 °F - 24.1 °F 76% 30.38 in 7.0 mi Calm Calm - N/A   Clear
9:51 AM 37.9 °F - 23.0 °F 55% 30.38 in 8.0 mi Calm Calm - N/A   Clear
10:51 AM 44.1 °F 41.5 °F 21.9 °F 42% 30.38 in 10.0 mi South 4.6 mph - N/A   Clear
11:51 AM 48.9 °F - 23.0 °F 36% 30.35 in 10.0 mi SW 4.6 mph - N/A   Clear
12:51 PM 51.1 °F - 24.1 °F 35% 30.32 in 10.0 mi Calm Calm - N/A   Clear
1:51 PM 53.1 °F - 19.0 °F 26% 30.28 in 10.0 mi SSE 3.5 mph - N/A   Clear
2:51 PM 55.9 °F - 19.9 °F 25% 30.27 in 10.0 mi WSW 3.5 mph - N/A   Clear
3:51 PM 55.0 °F - 21.0 °F 27% 30.24 in 10.0 mi SE 3.5 mph - N/A   Clear
4:51 PM 52.0 °F - 25.0 °F 35% 30.26 in 10.0 mi SSE 3.5 mph - N/A   Clear
5:51 PM 48.0 °F - 26.1 °F 42% 30.24 in 10.0 mi Calm Calm - N/A   Clear
6:51 PM 44.1 °F 42.5 °F 28.9 °F 55% 30.25 in 10.0 mi ESE 3.5 mph - N/A   Clear
7:51 PM 45.0 °F 43.5 °F 30.0 °F 56% 30.27 in 10.0 mi East 3.5 mph - N/A   Clear
8:51 PM 45.0 °F 42.6 °F 30.0 °F 56% 30.28 in 10.0 mi East 4.6 mph - N/A   Clear
9:51 PM 44.1 °F 41.5 °F 30.9 °F 60% 30.25 in 10.0 mi East 4.6 mph - N/A   Clear
10:51 PM 44.1 °F 41.5 °F 30.9 °F 60% 30.24 in 10.0 mi East 4.6 mph - N/A   Clear
11:51 PM 44.1 °F 39.0 °F 32.0 °F 63% 30.20 in 10.0 mi East 9.2 mph - N/A   Clear